Location: Tamazert
(32.6352°N, 5.2072°W)
Time: 19:06:19
(UTC+00:00)

deb Explorer IX - Pass Details

Date: 09 October 2022
Orbit: 533 x 1057 km, 38.8° (Epoch: 06 December)

Event Time Altitude Azimuth Distance (km) Brightness Sun altitude
Exits shadow 05:34:54 13° 285° (WNW) 1,709 ? -10.4°
Maximum altitude 05:38:31 42° 353° (N) 914 ? -9.6°
Drops below altitude 10° 05:43:16 10° 65° (ENE) 2,180 ? -8.6°
Sets 05:46:00 0° 72° (ENE) 3,198 ? -8.0°
